THORAD DELTA 1 DEB

Satellite information

Favourite Embed

Satellite Type and Status

DEBRISIN ORBIT

Key statistics

Satellite THORAD DELTA 1 DEB at a glance.

Uptime

18663

Days in orbit

Revolutions

≈ 12.6

Per day

Orbit

SSO

Sun Synchronous Orbit

Inclination

101.4

Latest

Satellite identification and parameters

Extended collection of information and parameters for THORAD DELTA 1 DEB.

Object identification

Identified? True

Debris? True

Object name: THORAD DELTA 1 DEB

International designator: 1974-089Y

Object number (NORAD): 8158

Object ID (CCSDS): 8158

Country: UNITED STATES OF AMERICA (US)

Current information (Y/N): Y

RCS size: SMALL

Orbital parameters

Period: 114.135 minutes

Inclination: 101.4292 deg

SMA: 7794.232 km

Apoapsis: 1465.601 km

Periapsis: 1366.594 km

RAAN: 61.6883 deg

Eccentricy: 0.00635132

Argument of periapsis: 214.3677 deg

Mean anomaly: 299.7391 deg

Mean motion: 12.61661166 rev/day

Mean motion (dot): -0.00000004 rev/day2

B* drag term: 0.00022762137 1/REarth

Two-line elements (TLE)

Creation date: Dec. 19, 2025, 2:08 a.m.

Reference frame: TEME

Reference center: EARTH

Epoch: Dec. 18, 2025, 4:17 p.m. UTC

TLE line 0: 0 THORAD DELTA 1 DEB

TLE line 1: 1 08158U 74089Y 25352.67853994 -.00000004 00000-0 22762-3 0 9995

TLE line 2: 2 08158 101.4292 61.6883 0063513 214.3677 299.7391 12.61661166350962

Live tracking on map

Real-time ground track for satellite THORAD DELTA 1 DEB.

In-orbit conjunctions

A list of the most updated potential collisions computed for object THORAD DELTA 1 DEB.

Target Orbit TCA Probability of collision Miss distance Type
SL-14 R/B LEO 2025-01-05 01:34:52 0.0003883805 319.0 (m) ROCKET BODY
COSMOS 1479 LEO 2024-11-18 22:13:00 0.0001157385 223.0 (m) PAYLOAD
SL-14 DEB LEO 2024-11-16 17:52:11 0.0007036015 617.0 (m) DEBRIS

Associated space launch

Meteorological satellite using radiometric imaging

THORAD DELTA 1 DEB was lifted into orbit during the mission ‘Delta 2310 | NOAA 4’, on board a Delta 2310 space rocket.

The launch took place on Nov. 15, 1974, 5:11 p.m. from Space Launch Complex 2W.

For more information about the launch, click the button.

Launch to space Delta 2310 | NOAA 4
Delta 2310 | NOAA 4

Agency: N/A

Status: Launch Successful

Launch date: Nov. 15, 1974, 5:11 p.m. UTC

Rocket: Delta 2310

Launch pad: Space Launch Complex 2W

Location: Vandenberg SFB, CA, USA

...

Latest news about this satellite

There are no fresh news available about this satellite. Check back as we update our databases every day.


Newsletter sign-up

Weekly statistics, charts and insights to help you stay on top of the space industry.